Regional Weather Roundup
Issued by NWS Newport/Morehead, NC

Current Version | Previous Version | Graphics & Text | Print | Product List | Glossary Off
Versions: 1 2 3 4 5 6 7 8 9 10 11 12 13 14 15 16 17 18 19 20 21 22 23 24 25 26 27 28 29 30 31 32 33 34 35 36 37 38 39 40 41 42 43 44 45 46 47 48 49 50

000
ASUS42 KMHX 190025
RWRMHX
WEATHER ROUNDUP FOR EASTERN NORTH CAROLINA
NATIONAL WEATHER SERVICE NEWPORT/MOREHEAD CITY NC
800 PM EDT WED OCT 18 2017

NOTE: "FAIR" INDICATES FEW OR NO CLOUDS BELOW 12,000 FEET
WITH NO SIGNIFICANT WEATHER AND/OR OBSTRUCTIONS TO VISIBILITY

NCZ015>017-031-032-045>047-102-103-190100-
NORTH COAST

CITY           SKY/WX    TMP DP  RH WIND       PRES   REMARKS
EDENTON        CLEAR     59  55  88 CALM      30.33S
ELIZABETH CITY CLEAR     59  54  83 E6        30.33R
KITTY HAWK     CLEAR     63  52  67 CALM      30.31S
MANTEO         CLEAR    N/A N/A N/A E7        30.32S

$$

NCZ045>047-081-094-103-104-190100-
CENTRAL COAST

CITY           SKY/WX    TMP DP  RH WIND       PRES   REMARKS
FRISCO         CLEAR     66  60  81 NE7       30.29S

$$

NCZ095-097-098-100-101-190100-
SOUTHERN COAST

CITY           SKY/WX    TMP DP  RH WIND       PRES   REMARKS
BEAUFORT       CLEAR     63  57  81 NE7       30.29S
CEDAR ISLAND   NOT AVBL
JACKSONVILLE   CLEAR     64  58  80 NE5       30.29R
PINEY ISLAND     N/A    N/A N/A N/A NE10      30.30R
WILMINGTON     CLEAR     62  55  77 NE3       30.29R


$$

NCZ011>013-027>030-043-044-078>080-089-090>093-098-190100-
COASTAL PLAIN

CITY           SKY/WX    TMP DP  RH WIND       PRES   REMARKS
AHOSKIE        CLEAR     52  51  97 CALM      30.34R
CLINTON        CLEAR     57  51  81 CALM      30.32R
ELIZABETHTOWN  NOT AVBL
GOLDSBORO      CLEAR     57  50  78 CALM      30.30R
GREENVILLE     CLEAR     55  54  94 CALM      30.33R
HAVELOCK       CLEAR     63  59  87 SE3       30.31R
KENANSVILLE    CLEAR     54  48  82 CALM      30.32R
KINSTON        CLEAR     55  52  88 CALM      30.32R
NEW BERN       CLEAR     62  57  83 E3        30.31R
RICHLANDS      CLEAR     56  53  90 CALM      30.31R
ROCKY MOUNT    CLEAR     53  52  96 CALM      30.32S
WASHINGTON     CLEAR     60  54  82 NE5       30.32S
WHITEVILLE     CLEAR     59  56  89 CALM      30.29R

$$

AMZ130-135-150-152-154-156-158-170-250-252-270-ANZ085-086-088-633-658-670-190100-
MARINE OBSERVATIONS

STATION/POSITION TIME  TEMP    WIND        PRES    WAVE   SWELL
                       AIR SEA DIR/SP/G            HT/PER HT/PER
                 (UTC) (F)     (DEG/KT/KT) (MB)    (FT/S) (FT/S)
CHESAPEAKE LIGHT NOT AVBL
64 E VA BEACH    2350   65 67   90/ 10/ 12 1027.2    4/ 9   3/ 9
DUCK             0000   65 69   50/  9/ 11 1026.4
2 E DUCK         0000      70                N/A     4/ 8   2/11
OREGON INLET     0000   66 65   40/  9/ 12 1026.2
13E OREGON INLT  2348      71                N/A     5/ 8   5/ 8
HATTERAS CG      0000   66 68   40/  9/ 13 1025.7
DIAMOND BUOY     2350   72 82   30/ 17/ 21 1024.4    7/ 7   3/ 9
CAPE LOOKOUT     0000   65      20/ 14/ 16 1025.2
BEAUFORT LAB     0000   64 69   20/  6/  7 1026.0
30 SE NEW RVR IN 0008   70      40/ 17/ 23 1024.6
30 SE NEW RVR IN NOT AVBL
27 SE WRIGHTSVLE 0008   71 77   70/ 17/ 23 1024.4
5 SE WRIGHTSVLE  0008   71 74   40/ 14/ 23 1025.0
225 S CAPE HAT   2350   76 80   50/ 21/ 25 1020.4   10/ 8
41 SE CHARLESTON 0010   74 80   40/ 21/ 27 1022.5

$$




USA.gov is the U.S. government's official web portal to all federal, state and local government web resources and services.